DELTA 1 DEB, 7043

Orbit data source: Space-Track

DELTA 1 DEB, 7043 is space debris in SSO originally from a launch on Tue, 06 Nov 1973 UTC launched from the Air Force Western Test Range (AFWTR). Debris objects in space refer to the collection of defunct objects orbiting the Earth. Examples of debris include non-operational satellites, rocket bodies, and fragments generated from explosions, collisions, or faulty payload assembly.

Loading next visibility...
Identifier
7043, 1973-086AK
Orbit
SSO
Last TLE update
2 days ago
Origin
Manufacturer
Unknown
Mission
Spacecraft
Bus & Motor
Unknown
Mass
Unknown
Launch date (UTC)
1973-11-06 (52 years ago)
Launch vehicle
Unknown
Launch site
Air Force Western Test Range (AFWTR)
Object type
Payload
Rocket body
Debris
Shape & HBR
Unknown
Radar Cross Section
Small (<0.1 m²)

Expand to show TLE details & history

TLE from 2 days ago
0 DELTA 1 DEB
1 07043U 73086AK  25198.04302549  .00000033  00000-0  31196-3 0  9999
2 07043 102.1671 228.6082 0217199 192.1708 228.8787 12.85331048421520
Epoch: 2025-07-17T01:01Z
TLE epoch observation values (Epoch: 2025-07-17T01:01:57.402Z)
Latitude
57.20615°
Longitude
-101.44601°
Altitude
1,441.502 km
Speed
7.094 km/s
True Right ascension
13h 56m 37s
True Declination
57° 03' 47"
Sunlit
Object was in daylight at epoch
Visualization orbit readout
Latitude
-1.50469°
Longitude
-79.82632°
Altitude
1,487.403 km
Speed
7.044 km/s
Apparent Right ascension
16h 35m 24s
Apparent Declination
-20° 02' 26"
Sunlit
Object is in daylight
Visualization observer readout
Local Sidereal Time
06:34:51
Azimuth
60.941° ENE
Elevation
-57.646°
Doppler factor
1
Orbital elements
Apogee altitude
1,484.786 km
Perigee altitude
1,150.483 km
Semi-major axis
7,695.771 km
Eccentricity
0.02172
Inclination
102.1671°
RAAN
228.6082°
Arg. of periapsis
192.1708°
True anomaly
227.03698°
Mean anomaly
228.8787°
Eccentric anomaly
227.95455°
Mean motion
3.21488 °/min
Orbital period
111.98 mins
BSTAR
0.00031196
Loading maneuver chart data...
Loading SW <> Apogee altitude chart data...
Loading historical data...
Loading historical data...
Loading historical data...
Loading historical data...
Loading historical data...
Loading historical data...
Loading historical data...
|